Weather History for Mazatlan Airport, Mexico

Change the Weather History Date:

Friday, January 11, 2013

  Actual Average Record
Temperature  
Mean Temperature 66 °F -  
Max Temperature 80 °F 78 °F 89 °F (2005)
Min Temperature 51 °F 51 °F 41 °F (1997)
Growing Degree Days 16 (Base 50)    
Moisture  
Dew Point 51 °F    
Average Humidity 64    
Maximum Humidity 82    
Minimum Humidity 37    
Precipitation  
Precipitation 0.00 in - - ()
Sea Level Pressure  
Sea Level Pressure 29.92 in    
Wind  
Wind Speed 6 mph ()    
Max Wind Speed 9 mph    
Max Gust Speed -    
Visibility 12.2 miles    
Events      
Averages and records for this station are not official NWS values.
T = Trace of Precipitation, MM = Missing Value Source: Averaged Metar Reports

Daily Weather History Graph

Daily Weather History Graph

Search for Another Location

Airport:

Trip Planner

Search our weather history database for the weather conditions in past years. The results will help you decide how hot, cold, wet, or windy it might be!

Date:

Astronomy

Jan. 11, 2013 Rise Set
Actual Time 6:48 AM MST 5:38 PM MST
Civil Twilight 6:24 AM MST 6:02 PM MST
Nautical Twilight 5:56 AM MST 6:30 PM MST
Astronomical Twilight 5:28 AM MST 6:57 PM MST
Moon 6:28 AM MST (1/11) 5:52 PM MST (1/11)
Length of Visible Light 11h 38m
Length of Day
10h 49m
Waning Crescent, 0% of the Moon is Illuminated
Jan 11
Waning Crescent
Jan 11
New
Jan 18
First Quarter
Jan 26
Full
Feb 3
Last Quarter

Hourly Weather History & Observations

Time (MST) Temp. Heat Index Dew Point Humidity Pressure Visibility Wind Dir Wind Speed Gust Speed Precip Events Conditions
12:44 AM 51.8 °F - 46.4 °F 82% 29.95 in 10.0 mi Calm Calm - N/A   Clear
1:48 AM 53.6 °F - 46.4 °F 77% 29.94 in 10.0 mi North 6.9 mph - N/A   Partly Cloudy
2:44 AM 53.6 °F - 46.4 °F 77% 29.93 in 10.0 mi North 8.1 mph - N/A   Partly Cloudy
3:45 AM 53.6 °F - 48.2 °F 82% 29.91 in 10.0 mi North 9.2 mph - N/A   Mostly Cloudy
4:50 AM 53.6 °F - 48.2 °F 82% 29.91 in 10.0 mi North 5.8 mph - N/A   Scattered Clouds
5:46 AM 53.6 °F - 48.2 °F 82% 29.93 in 10.0 mi North 6.9 mph - N/A   Partly Cloudy
6:42 AM 53.6 °F - 48.2 °F 82% 29.95 in 12.0 mi North 6.9 mph - N/A   Mostly Cloudy
7:50 AM 57.2 °F - 50.0 °F 77% 29.97 in 12.0 mi North 8.1 mph - N/A   Mostly Cloudy
8:49 AM 64.4 °F - 51.8 °F 64% 29.97 in 12.0 mi NE 8.1 mph - N/A   Mostly Cloudy
9:45 AM 69.8 °F - 53.6 °F 56% 29.97 in 15.0 mi SW 3.5 mph - N/A   Mostly Cloudy
10:51 AM 77.0 °F - 50.0 °F 39% 29.97 in 15.0 mi West 9.2 mph - N/A   Overcast
11:45 AM 77.0 °F - 53.6 °F 44% 29.95 in 15.0 mi WSW 8.1 mph - N/A   Mostly Cloudy
12:44 PM 80.6 °F 80.5 °F 55.4 °F 42% 29.90 in 15.0 mi South 6.9 mph - N/A   Mostly Cloudy
1:41 PM 77.0 °F - 53.6 °F 44% 29.89 in 15.0 mi SW 8.1 mph - N/A   Overcast
2:41 PM 80.6 °F - 51.8 °F 37% 29.88 in 15.0 mi SW 9.2 mph - N/A   Mostly Cloudy
3:43 PM 77.0 °F - 51.8 °F 41% 29.86 in 15.0 mi WSW 8.1 mph - N/A   Mostly Cloudy
4:42 PM 75.2 °F - 53.6 °F 47% 29.87 in 15.0 mi WSW 9.2 mph - N/A   Mostly Cloudy
5:41 PM 69.8 °F - 53.6 °F 56% 29.87 in 15.0 mi WSW 9.2 mph - N/A   Scattered Clouds
6:45 PM 66.2 °F - 55.4 °F 68% 29.89 in 12.0 mi West 9.2 mph - N/A   Scattered Clouds
7:41 PM 64.4 °F - 51.8 °F 64% 29.89 in 10.0 mi NNW 6.9 mph - N/A   Scattered Clouds
8:43 PM 62.6 °F - 51.8 °F 68% 29.91 in 10.0 mi West 6.9 mph - N/A   Scattered Clouds
9:45 PM 62.6 °F - 53.6 °F 72% 29.91 in 10.0 mi West 9.2 mph - N/A   Scattered Clouds
10:41 PM 62.6 °F - 53.6 °F 72% 29.93 in 10.0 mi WNW 5.8 mph - N/A   Scattered Clouds
11:42 PM 60.8 °F - 51.8 °F 72% 29.91 in 10.0 mi Calm Calm - N/A   Mostly Cloudy